Location: Lane
(33.5226°N, 79.8788°W)
Time: 17:53:15
(UTC+00:00)

Transit 2A - Pass Details

Date: 28 September 2022
Orbit: 598 x 959 km, 66.7° (Epoch: 06 December)

Event Time Altitude Azimuth Distance (km) Brightness Sun altitude
Rises 15:30:48 0° 319° (NW) 3,025 8.7 47.3°
Reaches altitude 10° 15:33:19 10° 307° (NW) 2,161 8.1 47.6°
Maximum altitude 15:37:24 27° 250° (WSW) 1,411 7.6 48.1°
Drops below altitude 10° 15:41:50 10° 194° (SSW) 2,348 9.1 48.7°
Sets 15:44:41 0° 183° (S) 3,342 9.8 49.0°
